Regional Weather Roundup
Issued by NWS

Home | Current Version | Previous Version | Graphics & Text | Print | Product List | Glossary On
Versions: 1 2 3 4 5 6 7 8 9 10 11 12 13 14 15 16 17 18 19 20 21 22 23 24 25 26 27 28 29 30 31 32 33 34 35 36 37 38 39 40 41 42 43 44 45 46 47 48 49 50
000
ASUS45 KPSR 152300
RWRAZ

PRELIMINARY ARIZONA REGIONAL HOURLY WEATHER ROUNDUP
NATIONAL WEATHER SERVICE PHOENIX AZ
400 PM MST TUE APR 15 2014

NOTE: FAIR INDICATES FEW OR NO CLOUDS BELOW 12,000 FEET WITH NO
SIGNIFICANT WEATHER AND/OR OBSTRUCTIONS TO VISIBILITY.

AZZ001>003-036-160000-
NORTHWEST ARIZONA

CITY           SKY/WX    TMP DP  RH WIND       PRES   REMARKS
KINGMAN        PTSUNNY   74  -9   3 SW16      29.89F
$$

AZZ004>008-015-016-018-160000-
NORTH CENTRAL ARIZONA

CITY           SKY/WX    TMP DP  RH WIND       PRES   REMARKS
GRAND CANYON   MOSUNNY   66  -2   6 SW16      29.99F
WILLIAMS       CLOUDY    63   0   8 SW14      30.08F
PRESCOTT       PTSUNNY   70   3   7 W10       29.96F
FLAGSTAFF      PTSUNNY   61  -4   7 W12G22    30.04F
PAYSON         PTSUNNY   68  10  10 VRB3      30.00F
PAGE           MOSUNNY   72   9   8 NE7       29.86F
$$

AZZ009>014-017-160000-
NORTHEAST ARIZONA

CITY           SKY/WX    TMP DP  RH WIND       PRES   REMARKS
WINSLOW        NOT AVBL
SAINT JOHNS    PTSUNNY   73   0   5 W21G26    29.93F
WINDOW ROCK    CLOUDY    64 -15   4 W18G25    30.01F
SHOW LOW       PTSUNNY   64   7  10 SW14G23   30.03F
$$

AZZ023-160000-
GREATER PHOENIX AREA

CITY           SKY/WX    TMP DP  RH WIND       PRES   REMARKS
PHOENIX        PTSUNNY   88  11   5 VRB6      29.76F
GLENDALE       MOSUNNY   88   9   5 E5        29.79F
DEER VALLEY    MOSUNNY   85   2   4 W5        29.78F
SCOTTSDALE     MOSUNNY   86  11   6 N6        29.80F
MESA-GATEWAY   PTSUNNY   86  14   7 W6        29.80F
CHANDLER       PTSUNNY   88  14   6 CALM      29.78F
$$

AZZ027-028-160000-
SOUTHWEST MARICOPA COUNTY AND PINAL COUNTY

CITY           SKY/WX    TMP DP  RH WIND       PRES   REMARKS
CASA GRANDE    SUNNY     88  25  10 NW5       29.79F
GILA BEND      CLEAR     90  10   5 NW8       29.77F
$$

AZZ503-504-507>509-160000-
SOUTHEAST ARIZONA

CITY           SKY/WX    TMP DP  RH WIND       PRES   REMARKS
TUCSON         SUNNY     89   3   4 MISG      29.82F
DAVIS-MONTHAN  SUNNY     87  12   6 N7        29.81F
RYAN FIELD       N/A     88  12   6 N6G16     29.81F
NOGALES        SUNNY     85   2   4 W14G23    29.87F
SIERRA VISTA   MOSUNNY   81   9   6 VRB3      29.91F
SAFFORD        PTSUNNY   78  12   8 VRB3      29.89F
$$

AZZ020-021-025-026-031-160000-
SOUTHWEST ARIZONA

CITY           SKY/WX    TMP DP  RH WIND       PRES   REMARKS
YUMA           MOSUNNY   92  -1   3 VRB3      29.76F
$$

CAZ031-033-041-043-047-048-061-160000-
SOUTHERN CALIFORNIA

CITY           SKY/WX    TMP DP  RH WIND       PRES   REMARKS
DOWNTOWN L.A.  SUNNY     69  50  50 VRB5      29.85F
L.A. AIRPORT   MOSUNNY   61  51  70 W12       29.87F
SAN DIEGO      PTSUNNY   65  53  65 W12       29.90F
BURBANK        SUNNY     79  36  21 S9        29.84F
ONTARIO        MOSUNNY   81  43  26 SW15G23   29.84F
RIVERSIDE      SUNNY     82  37  20 W16       29.84F
PALM SPRINGS   SUNNY     93  22   7 NE8       29.76F
EL CENTRO NAS  MOSUNNY   91  14   6 SE6       29.74F
IMPERIAL       SUNNY     91  18   7 SE7       29.74F
BLYTHE         SUNNY     89  13   6 E7        29.76F
$$

NVZ020-UTZ003-160000-
SOUTHERN NEVADA-UTAH

CITY           SKY/WX    TMP DP  RH WIND       PRES   REMARKS
LAS VEGAS      NOT AVBL
SALT LAKE CITY CLOUDY    68  12  11 W7        29.79F
$$

NMZ009-TXZ055-160000-
NEW MEXICO-WEST TEXAS

CITY           SKY/WX    TMP DP  RH WIND       PRES   REMARKS
ALBUQUERQUE    PTSUNNY   66  11  11 S13G21    29.94F
EL PASO        MOSUNNY   70   4   7 SE12      29.99F
$$


........................KEY........................
SKY/WX - SKY CONDITION/WEATHER
TMP    - TEMPERATURE IN FAHRENHEIT
DP     - DEW POINT IN FAHRENHEIT
RH     - RELATIVE HUMIDITY IN PERCENT
WIND   - DIRECTION AND SPEED IN MILES PER HOUR (MPH)
VRB    - VARIABLE WIND DIRECTION
PRES   - MEAN SEA LEVEL PRESSURE IN INCHES OF MERCURY
         F - FALLING PRESSURE   R - RISING PRESSURE
         S - STEADY PRESSURE
VSB    - VISIBILITY IN MILES
HX     - HEAT INDEX IN FAHRENHEIT
WCI    - WIND CHILL INDEX IN FAHRENHEIT
TC     - TEMPERATURE IN CELSIUS WHICH IS ALSO KNOWN AS
         TEMPERATURE IN CENTIGRADE
AFB    - AIR FORCE BASE
         LUKE AFB IS LUKE AIR FORCE BASE
         DAVIS-MONTHAN IS DAVIS-MONTHAN AIR FORCE BASE
NAS    - NAVAL AIR STATION
         EL CENTRO NAS IS EL CENTRO NAVAL AIR STATION
N/A    - NOT AVAILABLE



USA.gov is the U.S. government's official web portal to all federal, state and local government web resources and services.